| time (UTC) | temp F | wind direction | speed MPH | gust MPH | rain 1hr in | rain 24hr in | rain mn in | humidity % | barometer mb |
| 20260507003027 | 39 | 36 | 7.0 | 10.0 | 0.00 | 0.00 | 0.00 | 37 | 1014.2 |
| 20260507002026 | 39 | 40 | 7.0 | 11.0 | 0.00 | 0.00 | 0.00 | 38 | 1014.2 |
| 20260507001026 | 38 | 42 | 7.0 | 11.0 | 0.00 | 0.00 | 0.00 | 38 | 1014.2 |
| 20260507000025 | 38 | 21 | 5.0 | 10.0 | 0.00 | 0.00 | 0.00 | 39 | 1014.3 |
| 20260506235023 | 37 | 16 | 5.0 | 9.0 | 0.00 | 0.00 | 0.00 | 40 | 1014.3 |
| 20260506234024 | 37 | 23 | 5.0 | 8.0 | 0.00 | 0.00 | 0.00 | 40 | 1014.3 |
| 20260506233022 | 37 | 12 | 4.0 | 6.0 | 0.00 | 0.00 | 0.00 | 41 | 1014.3 |
| 20260506232020 | 37 | 2 | 4.0 | 6.0 | 0.00 | 0.00 | 0.00 | 41 | 1014.2 |
| 20260506231020 | 38 | 11 | 5.0 | 7.0 | 0.00 | 0.00 | 0.00 | 40 | 1014.2 |
| 20260506230019 | 38 | 15 | 5.0 | 7.0 | 0.00 | 0.00 | 0.00 | 40 | 1014.2 |
| 20260506225018 | 38 | 2 | 4.0 | 7.0 | 0.00 | 0.00 | 0.00 | 40 | 1014.2 |
| 20260506224017 | 38 | 353 | 4.0 | 6.0 | 0.00 | 0.00 | 0.00 | 40 | 1014.2 |
| 20260506223046 | 38 | 349 | 4.0 | 7.0 | 0.00 | 0.00 | 0.00 | 40 | 1014.1 |
| 20260506222046 | 39 | 349 | 4.0 | 7.0 | 0.00 | 0.00 | 0.00 | 40 | 1014.1 |
| 20260506221045 | 38 | 347 | 3.0 | 5.0 | 0.00 | 0.00 | 0.00 | 46 | 1014.0 |
| 20260506220043 | 38 | 336 | 3.0 | 5.0 | 0.00 | 0.00 | 0.00 | 52 | 1014.0 |
| 20260506215101 | 39 | 341 | 4.0 | 7.0 | 0.00 | 0.00 | 0.00 | 47 | 1014.0 |
| 20260506214042 | 40 | 343 | 4.0 | 5.0 | 0.00 | 0.00 | 0.00 | 44 | 1014.0 |
| 20260506213100 | 39 | 340 | 3.0 | 5.0 | 0.00 | 0.00 | 0.00 | 44 | 1013.9 |
| 20260506212039 | 39 | 340 | 3.0 | 5.0 | 0.00 | 0.00 | 0.00 | 45 | 1013.9 |
| 20260506211038 | 40 | 331 | 4.0 | 6.0 | 0.00 | 0.00 | 0.00 | 43 | 1013.8 |
| 20260506210037 | 41 | 340 | 4.0 | 6.0 | 0.00 | 0.00 | 0.00 | 39 | 1013.8 |
| 20260506205035 | 41 | 344 | 4.0 | 6.0 | 0.00 | 0.00 | 0.00 | 39 | 1013.8 |
| 20260506204037 | 41 | 335 | 3.0 | 6.0 | 0.00 | 0.00 | 0.00 | 42 | 1013.7 |
| 20260506203033 | 42 | 331 | 3.0 | 5.0 | 0.00 | 0.00 | 0.00 | 40 | 1013.7 |
| 20260506202033 | 42 | 337 | 4.0 | 6.0 | 0.00 | 0.00 | 0.00 | 38 | 1013.7 |
| 20260506201034 | 42 | 328 | 3.0 | 7.0 | 0.00 | 0.00 | 0.00 | 38 | 1013.7 |
| 20260506200033 | 42 | 315 | 3.0 | 5.0 | 0.00 | 0.00 | 0.00 | 36 | 1013.7 |
| 20260506195030 | 42 | 317 | 3.0 | 5.0 | 0.00 | 0.00 | 0.00 | 32 | 1013.6 |
| 20260506194031 | 43 | 331 | 3.0 | 5.0 | 0.00 | 0.00 | 0.00 | 28 | 1013.6 |
| 20260506193029 | 44 | 346 | 3.0 | 5.0 | 0.00 | 0.00 | 0.00 | 26 | 1013.6 |
| 20260506192028 | 44 | 358 | 3.0 | 5.0 | 0.00 | 0.00 | 0.00 | 25 | 1013.5 |
| 20260506191027 | 44 | 355 | 2.0 | 4.0 | 0.00 | 0.00 | 0.00 | 25 | 1013.4 |
| 20260506190047 | 44 | 356 | 2.0 | 4.0 | 0.00 | 0.00 | 0.00 | 27 | 1013.4 |
| 20260506185045 | 44 | 5 | 1.0 | 3.0 | 0.00 | 0.00 | 0.00 | 32 | 1013.3 |
| 20260506184024 | 45 | 12 | 1.0 | 3.0 | 0.00 | 0.00 | 0.00 | 30 | 1013.3 |
| 20260506183023 | 45 | 6 | 1.0 | 3.0 | 0.00 | 0.00 | 0.00 | 29 | 1013.3 |
| 20260506182023 | 46 | 332 | 2.0 | 6.0 | 0.00 | 0.00 | 0.00 | 28 | 1013.3 |
| 20260506181041 | 47 | 333 | 3.0 | 5.0 | 0.00 | 0.00 | 0.00 | 28 | 1013.2 |
| 20260506180040 | 47 | 338 | 3.0 | 5.0 | 0.00 | 0.00 | 0.00 | 27 | 1013.2 |
| 20260506175041 | 47 | 338 | 3.0 | 7.0 | 0.00 | 0.00 | 0.00 | 26 | 1013.1 |
| 20260506174019 | 48 | 348 | 5.0 | 8.0 | 0.00 | 0.00 | 0.00 | 24 | 1013.1 |
| 20260506173037 | 48 | 345 | 4.0 | 8.0 | 0.00 | 0.00 | 0.00 | 26 | 1013.1 |
| 20260506172037 | 49 | 332 | 4.0 | 8.0 | 0.00 | 0.00 | 0.00 | 25 | 1013.0 |
| 20260506171105 | 49 | 335 | 3.0 | 6.0 | 0.00 | 0.00 | 0.00 | 25 | 1012.9 |
| 20260506170046 | 50 | 324 | 4.0 | 9.0 | 0.00 | 0.00 | 0.00 | 24 | 1012.8 |
| 20260506165044 | 50 | 325 | 5.0 | 10.0 | 0.00 | 0.00 | 0.00 | 23 | 1012.8 |
| 20260506164043 | 50 | 310 | 6.0 | 12.0 | 0.00 | 0.00 | 0.00 | 23 | 1012.7 |
| 20260506163043 | 50 | 297 | 5.0 | 9.0 | 0.00 | 0.00 | 0.00 | 23 | 1012.8 |
| 20260506162041 | 50 | 313 | 5.0 | 9.0 | 0.00 | 0.00 | 0.00 | 24 | 1012.7 |
| 20260506161039 | 51 | 296 | 5.0 | 9.0 | 0.00 | 0.00 | 0.00 | 22 | 1012.7 |
| 20260506160039 | 51 | 305 | 5.0 | 9.0 | 0.00 | 0.00 | 0.00 | 21 | 1012.6 |
| 20260506155057 | 51 | 255 | 6.0 | 10.0 | 0.00 | 0.00 | 0.00 | 22 | 1012.7 |
| 20260506154037 | 51 | 254 | 7.0 | 10.0 | 0.00 | 0.00 | 0.00 | 21 | 1012.7 |
| 20260506153037 | 51 | 283 | 5.0 | 9.0 | 0.00 | 0.00 | 0.00 | 23 | 1012.6 |
| 20260506152055 | 51 | 278 | 3.0 | 6.0 | 0.00 | 0.00 | 0.00 | 23 | 1012.6 |
| 20260506151035 | 51 | 247 | 4.0 | 8.0 | 0.00 | 0.00 | 0.00 | 21 | 1012.6 |
| 20260506150033 | 51 | 271 | 6.0 | 9.0 | 0.00 | 0.00 | 0.00 | 21 | 1012.7 |
| 20260506145034 | 52 | 245 | 7.0 | 10.0 | 0.00 | 0.00 | 0.00 | 22 | 1012.8 |
| 20260506144031 | 51 | 239 | 8.0 | 12.0 | 0.00 | 0.00 | 0.00 | 23 | 1012.8 |
| 20260506143029 | 52 | 250 | 7.0 | 16.0 | 0.00 | 0.00 | 0.00 | 22 | 1012.8 |
| 20260506142030 | 53 | 265 | 6.0 | 11.0 | 0.00 | 0.00 | 0.00 | 24 | 1012.8 |
| 20260506141048 | 52 | 259 | 3.0 | 10.0 | 0.00 | 0.00 | 0.00 | 24 | 1012.7 |
| 20260506140027 | 51 | 268 | 4.0 | 7.0 | 0.00 | 0.00 | 0.00 | 25 | 1012.8 |
| 20260506135026 | 50 | 261 | 4.0 | 8.0 | 0.00 | 0.00 | 0.00 | 25 | 1012.9 |
| 20260506134026 | 50 | 275 | 4.0 | 6.0 | 0.00 | 0.00 | 0.00 | 25 | 1012.9 |
| 20260506133045 | 50 | 280 | 4.0 | 9.0 | 0.00 | 0.00 | 0.00 | 24 | 1012.9 |
| 20260506132023 | 50 | 301 | 6.0 | 10.0 | 0.00 | 0.00 | 0.00 | 25 | 1012.8 |
| 20260506131023 | 51 | 244 | 6.0 | 13.0 | 0.00 | 0.00 | 0.00 | 25 | 1012.8 |
| 20260506130021 | 52 | 233 | 8.0 | 13.0 | 0.00 | 0.00 | 0.00 | 24 | 1012.7 |
| 20260506125021 | 52 | 226 | 8.0 | 13.0 | 0.00 | 0.00 | 0.00 | 25 | 1012.7 |
| 20260506124020 | 53 | 229 | 8.0 | 12.0 | 0.00 | 0.00 | 0.00 | 27 | 1012.8 |
| 20260506123019 | 50 | 259 | 9.0 | 14.0 | 0.00 | 0.00 | 0.00 | 28 | 1012.9 |
| 20260506122017 | 52 | 279 | 8.0 | 14.0 | 0.00 | 0.00 | 0.00 | 26 | 1012.8 |
| 20260506121018 | 52 | 313 | 6.0 | 13.0 | 0.00 | 0.00 | 0.00 | 25 | 1012.8 |
| 20260506120046 | 52 | 297 | 5.0 | 12.0 | 0.00 | 0.00 | 0.00 | 27 | 1012.7 |
| 20260506115046 | 50 | 331 | 6.0 | 12.0 | 0.00 | 0.00 | 0.00 | 27 | 1012.7 |
| 20260506114045 | 49 | 305 | 5.0 | 10.0 | 0.00 | 0.00 | 0.00 | 30 | 1012.7 |
| 20260506113044 | 49 | 288 | 5.0 | 10.0 | 0.00 | 0.00 | 0.00 | 30 | 1012.8 |
| 20260506112103 | 48 | 318 | 6.0 | 10.0 | 0.00 | 0.00 | 0.00 | 29 | 1012.9 |
| 20260506111042 | 48 | 322 | 6.0 | 12.0 | 0.00 | 0.00 | 0.00 | 31 | 1012.8 |
| 20260506105040 | 50 | 313 | 8.0 | 14.0 | 0.00 | 0.00 | 0.00 | 30 | 1012.7 |
| 20260506104038 | 50 | 309 | 7.0 | 13.0 | 0.00 | 0.00 | 0.00 | 28 | 1012.7 |
| 20260506103037 | 50 | 266 | 7.0 | 16.0 | 0.00 | 0.00 | 0.00 | 28 | 1012.6 |
| 20260506102056 | 51 | 255 | 7.0 | 18.0 | 0.00 | 0.00 | 0.00 | 25 | 1012.6 |
| 20260506101036 | 49 | 265 | 8.0 | 18.0 | 0.00 | 0.00 | 0.00 | 26 | 1012.6 |
| 20260506100055 | 47 | 284 | 6.0 | 11.0 | 0.00 | 0.00 | 0.00 | 32 | 1012.6 |
| 20260506095033 | 47 | 294 | 8.0 | 15.0 | 0.00 | 0.00 | 0.00 | 31 | 1012.7 |
| 20260506094052 | 49 | 316 | 6.0 | 11.0 | 0.00 | 0.00 | 0.00 | 31 | 1012.5 |
| 20260506093053 | 48 | 305 | 7.0 | 13.0 | 0.00 | 0.00 | 0.00 | 31 | 1012.4 |
| 20260506092031 | 48 | 292 | 8.0 | 13.0 | 0.00 | 0.00 | 0.00 | 32 | 1012.4 |
| 20260506091030 | 47 | 307 | 7.0 | 13.0 | 0.00 | 0.00 | 0.00 | 34 | 1012.3 |
| 20260506090109 | 49 | 259 | 7.0 | 12.0 | 0.00 | 0.00 | 0.00 | 32 | 1012.3 |
| 20260506085107 | 47 | 279 | 7.0 | 17.0 | 0.00 | 0.00 | 0.00 | 33 | 1012.4 |
| 20260506084026 | 47 | 275 | 6.0 | 11.0 | 0.00 | 0.00 | 0.00 | 32 | 1012.3 |
| 20260506083027 | 48 | 295 | 5.0 | 12.0 | 0.00 | 0.00 | 0.00 | 34 | 1012.3 |
| 20260506082046 | 46 | 309 | 5.0 | 13.0 | 0.00 | 0.00 | 0.00 | 37 | 1012.3 |
| 20260506081024 | 46 | 281 | 5.0 | 11.0 | 0.00 | 0.00 | 0.00 | 40 | 1012.2 |
| 20260506080104 | 47 | 271 | 7.0 | 15.0 | 0.00 | 0.00 | 0.00 | 38 | 1012.1 |
| 20260506073020 | 46 | 297 | 6.0 | 11.0 | 0.00 | 0.00 | 0.00 | 43 | 1011.9 |
| 20260506072039 | 46 | 292 | 5.0 | 11.0 | 0.00 | 0.00 | 0.00 | 47 | 1011.9 |
| 20260506071020 | 45 | 273 | 7.0 | 13.0 | 0.00 | 0.00 | 0.00 | 47 | 1011.8 |
| 20260506062043 | 43 | 320 | 5.0 | 9.0 | 0.00 | 0.00 | 0.00 | 62 | 1011.7 |
| 20260506061043 | 43 | 290 | 5.0 | 10.0 | 0.00 | 0.00 | 0.00 | 62 | 1011.6 |
| 20260506051058 | 39 | 287 | 6.0 | 10.0 | 0.00 | 0.00 | 0.00 | 69 | 1010.9 |
| 20260506045036 | 38 | 265 | 6.0 | 10.0 | 0.00 | 0.00 | 0.00 | 72 | 1010.8 |
| 20260506044034 | 38 | 266 | 5.0 | 9.0 | 0.00 | 0.00 | 0.00 | 74 | 1010.6 |
| 20260506043034 | 37 | 268 | 5.0 | 8.0 | 0.00 | 0.00 | 0.00 | 75 | 1010.5 |
| 20260506042033 | 37 | 267 | 4.0 | 8.0 | 0.00 | 0.00 | 0.00 | 76 | 1010.4 |
| 20260506041031 | 36 | 266 | 5.0 | 7.0 | 0.00 | 0.00 | 0.00 | 77 | 1010.3 |
| 20260506040031 | 36 | 273 | 4.0 | 7.0 | 0.00 | 0.00 | 0.00 | 78 | 1010.2 |
| 20260506035050 | 35 | 270 | 5.0 | 8.0 | 0.00 | 0.00 | 0.00 | 79 | 1010.1 |
| 20260506034026 | 35 | 271 | 5.0 | 9.0 | 0.00 | 0.00 | 0.00 | 80 | 1010.0 |
| 20260506033027 | 34 | 266 | 5.0 | 9.0 | 0.00 | 0.00 | 0.00 | 81 | 1009.9 |
| 20260506032025 | 34 | 262 | 5.0 | 8.0 | 0.00 | 0.00 | 0.00 | 81 | 1009.7 |
| 20260506031023 | 34 | 257 | 6.0 | 9.0 | 0.00 | 0.00 | 0.00 | 82 | 1009.6 |
| 20260506030024 | 34 | 264 | 5.0 | 8.0 | 0.00 | 0.00 | 0.00 | 82 | 1009.6 |
| 20260506025023 | 33 | 270 | 4.0 | 8.0 | 0.00 | 0.00 | 0.00 | 83 | 1009.5 |
| 20260506024022 | 33 | 283 | 3.0 | 7.0 | 0.00 | 0.00 | 0.00 | 84 | 1009.4 |
| 20260506023020 | 33 | 284 | 3.0 | 8.0 | 0.00 | 0.00 | 0.00 | 84 | 1009.3 |
| 20260506022019 | 33 | 276 | 4.0 | 8.0 | 0.00 | 0.00 | 0.00 | 83 | 1009.2 |
| 20260506021038 | 33 | 265 | 5.0 | 7.0 | 0.00 | 0.00 | 0.00 | 82 | 1009.1 |
| 20260506020016 | 33 | 254 | 6.0 | 9.0 | 0.00 | 0.00 | 0.00 | 81 | 1009.0 |
| 20260506015017 | 33 | 255 | 5.0 | 9.0 | 0.00 | 0.00 | 0.00 | 80 | 1009.0 |
| 20260506014046 | 33 | 254 | 4.0 | 8.0 | 0.00 | 0.00 | 0.00 | 80 | 1008.9 |
| 20260506013104 | 33 | 259 | 4.0 | 7.0 | 0.00 | 0.00 | 0.00 | 80 | 1008.8 |
| 20260506012102 | 33 | 262 | 4.0 | 8.0 | 0.00 | 0.00 | 0.00 | 80 | 1008.7 |
| 20260506011043 | 33 | 264 | 5.0 | 9.0 | 0.00 | 0.00 | 0.00 | 80 | 1008.7 |
| 20260506010041 | 34 | 261 | 6.0 | 11.0 | 0.00 | 0.00 | 0.00 | 79 | 1008.6 |
| 20260506005039 | 34 | 263 | 6.0 | 11.0 | 0.00 | 0.00 | 0.00 | 78 | 1008.5 |
| 20260506004040 | 34 | 263 | 7.0 | 11.0 | 0.00 | 0.00 | 0.00 | 77 | 1008.5 |